Theta_e
351 347 344 338 335 338 341 348 348 348 346 344 343 342 342 339 338 335 335 335 329 323 327 335 335 328 327 332 336 337 337 338 340 341 342 342 343 343 343 341 339 340 342 343 344 344 344 343 343 344 344 343 343 342 342 342 341 341 340 340 339 339 339 339 338 338 339 339 339 338 337 337 337 337 336 335 334 334 333 333 332 331 331 332 332
350 347 346 342 336 339 343 347 347 349 346 345 344 342 342 338 338 335 336 333 327 324 330 337 336 333 332 334 337 339 337 339 341 342 342 342 343 343 344 344 343 344 343 344 344 344 343 344 343 344 344 343 343 341 341 341 340 340 338 338 337 337 337 337 336 336 336 336 336 335 334 335 334 333 332 331 330 330 331 333 332 331 331 331 331
349 346 347 345 338 341 345 346 346 348 345 345 343 342 341 338 337 335 336 331 326 325 331 337 336 336 336 337 339 339 338 341 342 342 342 343 344 344 344 344 344 345 344 344 344 344 344 344 344 344 343 343 341 340 341 340 339 338 337 337 336 335 335 336 336 336 335 335 334 332 332 332 332 331 331 329 328 329 331 333 332 332 331 330 331
349 347 347 346 342 344 345 345 346 347 345 345 343 342 339 338 337 336 335 329 325 326 332 336 335 337 336 337 339 338 340 342 342 342 344 344 345 344 345 344 344 344 344 344 344 344 344 344 344 344 343 343 341 340 340 339 338 337 337 335 333 333 334 335 336 336 336 336 335 333 332 332 333 333 332 332 331 332 333 333 333 332 331 330 330
348 347 346 346 345 346 345 346 346 346 345 344 342 341 339 338 337 337 334 326 325 327 334 336 336 337 336 337 338 340 342 342 342 343 344 345 345 344 345 345 344 343 344 344 344 344 343 344 344 344 343 343 342 341 339 338 337 337 336 333 330 330 332 334 335 336 337 337 337 334 333 333 333 333 333 333 333 334 334 333 333 332 331 331 331
348 347 346 345 346 346 345 345 345 344 344 343 342 340 339 338 337 337 331 326 325 329 335 336 337 338 336 337 339 342 343 342 342 344 345 344 345 345 345 344 344 344 344 344 344 344 344 344 344 344 343 342 341 340 339 338 337 337 336 335 331 327 330 333 334 336 336 338 339 334 333 333 332 333 333 333 333 334 335 334 334 333 332 331 332
348 346 345 345 346 345 345 344 344 344 343 343 342 341 339 339 338 336 329 327 327 330 334 337 339 339 338 338 340 342 343 343 342 344 344 344 345 344 345 344 344 344 344 344 344 344 344 343 342 342 341 341 339 337 335 334 335 336 337 336 330 326 331 332 332 334 335 339 339 334 333 333 332 332 332 333 333 333 333 333 333 332 331 330 330
347 345 344 346 346 345 344 344 344 343 343 342 341 341 340 339 338 334 330 328 327 331 334 338 340 340 340 339 340 342 343 343 342 343 343 344 344 344 344 344 344 343 344 343 343 343 343 341 337 337 338 336 332 330 329 328 328 330 332 329 323 326 331 330 331 332 333 335 334 332 331 331 331 332 332 333 332 331 331 331 332 331 331 330 330
346 345 345 345 345 344 343 343 343 342 342 341 341 341 340 339 336 333 331 328 328 332 334 337 339 340 341 340 340 341 342 343 343 342 342 344 344 344 344 344 343 343 343 342 343 342 342 341 336 335 334 330 328 328 327 326 323 321 322 321 322 329 331 331 333 333 334 333 332 331 331 331 332 333 333 334 333 333 331 330 330 327 328 330 330
346 346 345 345 343 342 343 342 342 341 340 340 339 340 339 336 334 332 330 328 330 333 333 336 338 340 341 340 339 340 341 343 343 343 342 343 343 343 343 342 342 341 341 341 341 340 340 339 337 336 332 329 329 329 327 323 318 319 323 326 328 331 332 332 332 331 332 332 331 332 332 333 332 333 334 334 332 332 330 329 329 326 327 330 329
347 346 346 346 340 338 340 340 340 338 338 338 337 337 336 334 332 331 329 329 332 334 332 333 337 339 339 340 339 340 340 341 343 342 342 343 343 343 342 341 340 339 337 337 336 336 338 337 336 335 332 330 330 329 325 319 318 325 329 331 331 332 333 334 333 330 330 331 331 332 333 333 333 333 333 332 331 331 331 331 330 327 327 329 329
347 347 347 345 338 334 337 336 336 336 335 335 334 333 332 331 331 331 330 332 334 335 335 333 335 337 338 339 340 340 340 341 342 342 342 342 342 342 341 340 338 335 333 333 333 333 335 334 333 331 330 330 330 328 322 319 326 331 331 331 332 332 334 334 334 333 333 334 333 334 334 334 334 335 334 333 333 332 332 331 330 329 328 329 329
348 348 346 343 337 334 334 334 334 334 334 332 330 330 330 332 332 332 333 335 335 337 338 335 335 337 338 339 339 340 340 340 341 341 341 341 341 340 340 339 335 332 331 331 330 331 332 330 329 329 329 328 328 325 320 324 331 332 331 332 332 333 334 334 334 335 336 336 335 335 334 335 335 335 334 333 333 332 332 330 330 330 329 329 329
349 348 345 341 339 336 334 333 334 333 331 330 330 331 332 334 334 334 335 336 336 338 338 336 336 337 339 338 338 339 340 340 340 340 340 340 340 339 339 338 334 330 331 330 329 329 329 329 330 330 329 326 324 320 319 327 332 331 332 332 333 334 334 334 334 335 336 336 335 335 334 334 334 334 333 333 332 332 330 329 329 329 329 329 329
349 347 343 340 341 339 336 333 332 331 330 330 332 334 335 335 333 334 335 334 335 336 336 335 336 336 337 338 337 338 339 339 339 339 339 339 339 339 338 337 332 330 331 331 330 330 331 331 330 330 327 325 321 318 321 328 331 332 333 333 334 334 334 333 333 335 335 335 335 333 333 333 332 332 332 332 331 331 330 329 329 329 329 329 329
348 345 343 341 341 340 338 335 331 330 330 330 332 334 334 334 332 333 335 334 334 335 335 335 336 337 337 338 337 337 338 339 339 339 339 339 339 338 337 334 330 330 332 332 331 330 331 331 329 329 327 324 319 317 323 329 331 332 332 333 334 334 335 334 333 335 335 334 333 331 331 331 331 331 331 331 330 330 329 329 329 329 329 329 329
347 345 344 342 342 340 339 338 333 330 330 331 331 333 334 334 332 335 337 336 337 337 338 338 339 339 338 337 336 336 337 338 338 338 338 338 338 337 336 331 329 330 330 333 333 331 330 330 329 328 326 323 318 316 324 329 331 332 333 334 335 335 336 336 335 334 334 333 333 331 331 331 331 330 330 330 329 329 328 328 329 328 328 328 328
347 345 344 343 342 340 339 338 334 333 334 334 333 334 334 334 334 336 337 337 338 339 339 340 339 338 338 337 336 336 335 335 335 336 337 337 337 336 335 331 329 329 329 333 335 332 330 330 329 327 324 320 317 315 321 328 331 332 334 334 334 334 333 334 334 335 335 334 333 332 330 330 330 330 330 329 329 328 328 328 328 328 328 328 328
347 345 343 342 341 340 340 338 336 338 338 338 337 335 335 335 336 336 337 338 337 338 339 339 339 338 339 338 336 336 335 333 330 329 332 335 336 335 335 332 328 328 328 331 334 333 331 330 330 327 322 316 315 315 318 326 331 333 333 333 333 333 332 332 334 335 335 334 333 330 328 328 330 330 329 329 328 328 328 328 327 327 328 328 328
346 343 342 342 342 341 339 337 338 339 339 339 338 337 336 336 337 337 337 337 337 338 339 339 339 338 338 338 336 336 335 331 327 324 325 330 334 335 336 332 329 328 328 329 333 334 332 330 330 327 320 314 314 314 318 328 332 333 334 334 335 333 331 331 334 336 334 333 331 328 326 329 329 329 329 329 328 328 327 327 327 327 328 328 326
343 341 342 343 342 342 340 339 341 340 340 340 339 337 336 337 337 337 337 336 337 338 338 339 339 338 337 337 336 338 336 331 332 330 324 326 330 333 335 332 329 329 327 328 331 333 333 331 330 327 320 314 312 315 324 332 333 334 334 334 335 334 332 330 333 334 333 332 329 326 327 329 329 329 329 328 327 327 327 327 327 327 327 326 325
340 339 342 343 343 342 341 341 342 341 341 340 340 338 334 336 337 337 337 336 336 337 338 338 338 338 336 337 337 340 340 336 338 336 331 328 327 329 332 330 329 329 328 328 329 332 333 331 330 327 321 317 313 314 324 331 332 333 334 334 335 336 335 333 334 334 332 331 326 325 328 329 328 328 328 328 327 327 327 327 327 326 326 325 325
339 338 340 343 343 342 342 342 341 340 340 339 341 339 333 336 338 336 337 336 335 336 336 337 338 338 336 338 339 340 341 340 340 339 337 333 329 329 329 329 330 329 328 328 328 331 332 331 331 328 327 328 325 319 320 328 333 334 334 335 335 334 334 333 334 333 332 330 325 326 328 328 328 329 328 328 327 327 326 326 326 326 325 325 324
340 340 341 341 343 343 342 342 341 340 341 339 340 341 335 337 340 337 337 336 336 337 336 337 338 338 337 338 339 340 341 340 340 340 340 337 334 332 329 326 329 330 329 328 327 329 331 332 331 329 332 335 336 331 326 327 332 334 335 334 333 334 334 333 333 331 331 328 323 325 328 327 328 328 328 328 327 327 326 326 326 325 325 324 324
341 342 341 341 343 344 343 342 341 341 341 339 339 340 337 338 341 339 339 337 338 338 336 338 338 337 337 338 338 340 341 340 339 340 340 339 337 334 330 326 326 329 329 328 327 329 330 332 331 330 333 336 338 337 333 330 330 334 336 333 332 334 334 333 333 331 330 327 322 324 327 327 327 328 328 328 327 327 326 326 325 325 324 324 324
343 343 343 343 343 344 343 342 342 342 342 340 340 339 337 339 340 339 339 339 339 338 337 337 337 338 338 339 338 339 340 340 339 340 339 339 338 336 334 330 327 326 327 329 330 330 330 333 333 330 331 336 337 337 335 333 333 335 335 332 333 334 334 333 334 332 331 329 322 324 328 328 328 328 328 327 327 327 326 326 325 324 324 324 324
344 344 344 344 344 343 343 342 342 342 341 341 341 339 338 339 340 340 340 340 341 339 338 338 337 338 338 339 339 339 340 340 340 340 339 338 338 337 336 335 333 329 326 330 333 333 332 335 337 333 331 336 337 337 336 334 334 335 333 333 334 334 333 332 333 332 332 330 322 321 326 327 327 328 328 327 327 327 326 326 325 324 324 324 324
344 343 343 343 343 343 342 342 342 342 341 341 341 340 340 341 341 341 341 340 340 339 339 338 338 338 338 338 339 340 339 339 340 339 339 338 337 337 336 336 335 332 329 330 334 334 333 335 337 336 334 336 337 337 336 334 334 334 333 333 333 333 332 332 333 333 332 331 326 320 321 325 328 327 327 328 327 326 326 326 326 325 324 324 324
343 342 341 341 343 343 343 343 343 341 341 340 340 341 341 342 341 340 340 341 339 339 339 339 339 338 338 338 339 339 339 338 339 339 338 338 337 337 336 336 335 334 331 329 332 334 334 335 336 336 336 336 336 336 335 333 333 334 333 333 333 333 332 332 332 333 332 331 330 324 317 321 327 328 327 328 327 327 327 326 325 326 325 325 325
341 341 341 340 341 342 342 343 342 341 341 341 341 342 342 341 341 341 341 341 340 340 340 339 339 338 338 338 339 339 338 338 338 339 339 339 338 337 336 336 335 335 332 330 331 333 334 334 336 337 336 335 335 335 335 333 333 333 333 333 333 333 333 332 331 332 332 331 330 327 319 317 323 326 327 328 328 327 327 327 326 326 326 325 324
341 340 341 341 341 341 341 342 341 341 341 342 341 341 341 342 342 341 339 340 340 339 339 339 339 338 337 338 339 338 338 338 337 338 338 338 338 337 337 336 336 335 333 332 331 332 332 333 334 336 336 336 334 335 335 334 333 332 333 334 333 333 332 332 332 331 332 331 331 329 321 315 316 322 326 327 327 327 327 327 327 327 327 325 324
342 340 341 341 342 342 341 341 341 341 342 342 342 341 342 343 341 340 339 339 339 338 338 339 339 338 336 337 337 337 336 337 337 337 337 337 337 337 337 337 336 336 335 333 333 331 331 331 333 335 337 336 335 334 335 334 333 331 333 334 333 333 333 333 333 332 332 331 331 329 319 313 314 319 323 323 324 327 328 328 328 327 326 325 325
344 342 341 341 341 341 341 341 341 341 343 341 340 339 339 340 339 339 339 339 339 339 338 339 339 338 336 335 336 337 335 336 337 336 337 337 337 337 336 336 336 336 335 335 334 332 331 332 332 334 336 336 335 334 335 334 333 332 333 334 333 333 334 334 334 333 333 331 330 330 322 315 316 320 323 321 323 327 329 329 329 327 326 325 327
344 343 342 342 342 341 341 341 341 342 342 340 338 337 337 338 339 339 339 339 339 338 338 338 338 339 339 337 337 337 336 335 336 336 336 337 336 336 335 335 336 336 335 335 334 333 333 333 332 333 334 335 335 334 335 335 333 333 333 333 333 334 334 335 335 333 333 332 330 331 328 323 320 322 325 325 325 327 328 329 329 328 326 326 328
343 342 342 342 343 343 341 341 341 341 341 340 340 339 339 339 340 340 339 339 338 337 338 337 338 340 340 340 339 338 336 335 335 336 336 336 336 336 335 335 335 335 335 334 334 334 335 334 333 333 333 334 335 334 336 336 334 333 332 334 333 333 335 335 335 334 333 332 331 331 330 329 327 325 327 329 329 329 328 328 328 329 328 327 328
343 342 341 342 343 343 342 342 341 340 340 340 341 341 341 340 340 339 339 339 339 338 338 337 337 338 340 340 339 337 337 335 335 335 335 335 336 335 335 335 335 335 335 336 335 335 335 334 334 334 333 333 334 334 335 336 335 334 332 334 334 334 335 335 335 335 333 332 331 331 331 331 331 330 329 330 330 330 329 328 328 328 327 327 329
343 342 341 341 342 342 342 343 342 341 340 339 340 340 341 340 340 340 339 339 339 338 337 336 336 335 338 340 339 338 337 337 336 336 335 335 335 335 335 336 336 335 335 336 335 335 335 334 334 334 333 333 333 333 334 334 335 334 333 334 334 334 334 334 334 335 333 333 331 331 332 332 332 332 331 331 331 330 329 329 329 328 327 327 330
343 342 341 341 341 342 341 341 342 342 341 340 340 340 341 341 340 340 340 340 338 337 336 335 335 335 336 338 339 339 338 338 337 337 337 336 336 335 335 337 337 336 335 335 336 336 335 334 334 334 333 333 333 333 333 333 334 334 334 334 333 333 333 332 333 335 334 333 331 331 332 332 332 332 333 333 332 332 330 329 328 329 329 327 329
342 341 341 341 341 341 341 341 341 341 341 340 339 339 340 340 340 339 339 341 339 339 339 338 337 336 336 337 339 340 339 339 338 338 338 337 336 335 336 337 337 336 335 335 336 336 335 335 334 334 333 332 333 333 333 333 334 333 333 333 332 333 333 332 332 334 334 333 332 331 332 332 332 332 332 332 331 332 331 329 328 328 329 328 328
341 341 341 341 341 341 341 341 341 341 341 341 339 339 340 340 340 340 340 341 340 340 341 340 340 339 338 337 337 338 338 337 337 338 338 337 335 335 335 336 337 336 335 336 336 335 335 335 335 333 333 333 333 333 332 334 334 333 333 332 332 333 332 331 332 334 335 334 333 332 332 333 333 332 332 331 331 331 331 331 328 326 326 327 328
341 341 341 341 341 341 341 341 340 340 341 340 339 339 340 339 339 340 341 341 340 340 341 341 341 341 341 339 338 338 338 337 336 337 338 337 336 336 336 336 337 336 335 336 336 334 335 335 335 334 333 334 334 333 333 333 333 333 333 332 331 332 332 332 333 334 334 334 333 333 332 332 332 332 332 331 330 330 331 332 329 327 328 328 327
338 339 339 340 340 340 340 340 340 340 340 339 338 339 340 339 339 340 340 340 340 339 339 339 339 340 341 340 339 339 339 338 338 338 338 338 337 337 337 337 337 337 335 335 335 335 336 335 335 334 334 334 334 334 334 332 332 333 333 333 331 332 332 333 334 334 334 334 333 333 332 331 331 331 331 331 331 331 331 331 330 329 331 330 326
334 335 336 337 338 338 338 338 338 339 340 339 338 339 339 339 339 340 340 340 340 338 338 338 338 338 339 340 340 340 339 339 339 339 338 338 337 337 337 338 338 337 336 336 335 336 336 335 335 335 335 335 334 335 334 333 332 333 333 332 332 332 332 332 333 333 334 334 333 332 331 331 331 331 330 330 330 331 330 329 329 329 331 331 327
331 332 332 334 335 336 336 337 338 339 339 339 338 339 339 340 340 340 339 339 339 337 337 338 338 337 338 339 340 340 339 339 339 339 339 338 338 337 337 338 338 337 337 337 337 337 336 335 335 335 335 335 335 334 334 333 332 333 333 332 332 332 332 332 333 332 332 333 332 332 332 331 330 331 330 330 330 330 329 329 329 330 329 330 330
329 329 330 331 332 333 334 336 337 338 338 338 338 338 339 340 339 339 338 338 338 337 338 338 339 338 337 339 340 340 339 339 338 337 338 338 338 337 337 337 337 337 338 338 337 337 336 335 335 335 334 334 334 334 334 333 332 333 332 332 334 334 332 331 333 333 332 332 332 332 332 331 331 331 330 330 330 329 329 329 329 330 330 330 331
327 328 328 329 330 331 332 333 335 336 336 336 336 337 338 339 338 338 338 337 337 338 339 339 338 338 337 337 338 339 339 339 338 337 337 337 337 337 337 337 337 337 337 338 338 337 336 336 335 335 334 334 334 333 334 333 332 333 331 331 333 333 333 333 334 335 333 331 332 333 332 331 332 331 330 330 330 329 329 329 329 330 331 331 330
326 326 327 328 328 329 330 331 331 332 333 333 333 335 336 337 338 337 337 337 338 338 339 338 337 337 337 337 337 338 339 339 338 337 337 337 337 337 337 337 337 337 337 337 337 337 337 336 335 335 334 334 334 333 333 332 332 331 330 330 330 331 333 334 335 336 334 332 332 333 332 332 332 331 331 331 330 329 329 328 329 330 330 330 329
325 325 326 326 327 328 328 328 329 329 330 330 331 333 333 334 336 336 337 337 337 337 337 336 336 336 337 337 336 337 338 339 338 337 337 337 337 337 336 336 337 337 337 336 337 337 337 336 336 335 334 334 334 333 333 333 332 331 330 331 330 330 331 332 332 334 336 335 333 332 332 331 331 330 331 332 330 329 329 328 329 330 329 329 328
324 324 325 325 325 326 326 327 327 327 328 328 329 331 332 333 335 335 336 336 335 336 336 335 335 335 336 336 336 337 337 337 338 337 336 337 336 336 336 336 336 336 336 336 336 336 335 334 335 335 335 334 334 333 332 332 332 331 331 331 331 330 330 331 331 331 334 335 334 333 332 331 330 330 331 332 331 329 328 329 329 329 329 328 328
323 323 323 324 324 324 325 326 326 325 326 327 327 329 330 331 333 333 334 335 335 335 335 335 335 335 336 336 336 337 337 336 336 336 337 337 336 336 336 336 336 336 335 335 335 335 333 333 333 334 335 335 334 334 332 331 331 332 331 332 331 329 329 331 331 331 331 333 334 333 332 331 330 331 331 331 331 329 328 329 329 328 328 328 327
322 322 322 322 322 323 323 324 324 324 325 325 326 327 328 329 329 330 332 333 334 334 334 335 335 335 335 336 336 336 337 336 335 335 336 336 337 337 336 336 336 335 335 334 333 333 333 333 333 334 335 334 334 333 333 332 331 331 331 331 331 330 330 331 331 331 331 332 333 333 332 331 331 331 331 331 331 330 329 329 328 328 328 328 327
Wind_Speed
19 18 16 16 16 15 16 16 16 17 17 18 18 18 17 17 16 14 13 12 12 12 13 13 13 15 17 17 16 17 16 15 15 13 13 12 13 13 13 13 13 13 13 13 13 13 13 13 14 14 14 14 13 13 15 15 16 17 17 17 17 18 18 18 17 17 17 17 17 17 17 17 16 16 15 16 16 16 17 17 17 18 19 19 18
21 18 15 15 16 16 16 16 17 17 18 18 18 18 18 17 16 14 12 12 12 13 13 13 13 14 16 18 17 16 15 14 13 12 12 12 13 14 14 14 14 14 14 14 13 14 14 14 14 14 14 14 13 13 15 15 15 16 17 18 18 19 18 17 16 16 16 16 15 16 17 17 16 15 14 13 14 15 17 18 17 19 19 18 19
21 18 14 14 16 16 16 17 18 17 18 18 18 18 18 17 16 14 12 12 14 13 13 13 14 13 15 16 15 14 14 13 12 12 13 14 14 15 15 15 15 15 15 14 14 14 14 14 14 14 14 14 13 14 15 14 15 15 18 20 20 19 18 16 15 15 15 16 16 16 17 17 17 16 16 15 15 15 17 18 18 19 19 18 18
22 19 15 14 15 16 17 18 18 18 18 18 18 18 18 17 15 13 12 13 14 13 13 14 14 14 14 14 15 15 14 13 12 13 14 15 15 15 15 15 16 16 15 14 14 14 14 14 13 14 14 14 14 14 15 15 15 17 20 21 19 17 16 15 15 15 16 18 19 19 18 18 18 18 18 18 19 19 19 19 19 18 19 19 19
22 18 16 15 14 17 18 19 19 19 19 18 18 18 18 17 15 13 13 14 15 13 14 15 15 14 14 15 16 15 14 12 12 13 14 15 15 15 15 15 16 16 16 15 14 14 14 14 13 13 13 13 14 13 14 15 16 18 20 20 18 16 15 14 14 14 14 15 17 18 18 18 18 18 18 18 18 18 18 19 19 19 19 20 19
20 18 17 15 14 17 18 19 20 19 19 18 18 18 17 16 14 13 14 15 15 14 15 16 16 15 15 16 16 15 13 12 12 13 14 14 15 15 15 16 16 16 16 15 14 14 14 13 13 13 12 12 12 12 12 14 15 16 17 17 16 14 13 12 11 10 9 8 12 15 15 16 17 17 16 16 17 17 18 18 18 18 18 18 18
19 19 17 16 14 16 18 18 19 19 19 19 18 17 16 15 13 13 15 15 15 15 16 16 16 15 14 15 16 15 13 11 12 13 14 15 15 15 15 16 16 16 15 14 13 12 12 11 11 11 11 11 11 12 11 11 12 12 13 12 13 13 12 10 8 7 7 7 11 15 14 15 16 16 15 15 16 16 17 17 17 17 17 16 16
19 18 17 16 13 16 18 19 19 19 19 18 17 16 15 14 13 14 14 14 16 16 17 17 15 15 14 14 15 14 12 11 12 12 13 14 14 15 15 15 15 14 13 12 12 11 11 10 9 10 10 11 11 11 10 9 8 9 9 10 12 14 12 9 8 7 7 9 12 13 14 15 16 15 15 14 14 14 15 16 16 15 17 16 15
18 18 19 15 13 18 20 19 19 18 18 17 16 15 14 13 13 14 13 14 16 16 17 17 15 15 13 13 14 14 13 12 11 11 12 13 14 14 14 14 13 13 12 12 11 11 10 9 9 9 10 10 10 10 9 8 7 8 10 12 14 14 12 10 10 11 10 13 16 15 14 15 15 15 14 14 14 14 14 15 15 15 16 16 14
18 19 19 15 15 20 19 19 18 17 16 16 15 14 14 14 13 13 12 14 15 16 17 17 16 16 14 13 15 15 14 12 10 10 11 12 12 12 13 13 12 10 10 10 10 10 8 7 8 8 9 9 9 8 8 8 10 14 16 16 14 12 10 11 13 15 14 15 17 16 16 15 15 15 14 13 13 13 13 14 14 15 16 15 14
19 19 17 15 18 20 19 19 17 16 15 15 14 13 14 14 13 13 12 13 15 15 15 16 18 17 15 14 15 15 14 12 10 9 11 12 11 10 10 10 9 7 8 10 9 9 8 6 7 8 8 8 8 7 8 11 16 19 18 15 12 9 8 9 11 13 14 14 14 15 16 16 16 15 14 13 13 13 13 13 14 15 16 15 14
19 18 17 18 20 20 18 18 16 15 14 14 14 13 13 13 12 12 12 13 15 15 14 14 17 17 14 13 14 14 13 12 10 10 11 11 10 8 8 7 6 5 8 10 9 9 8 7 7 8 7 7 7 8 10 15 19 18 15 12 9 7 7 9 10 12 16 15 15 15 16 16 16 15 14 14 14 13 13 13 13 15 16 15 14
20 19 19 19 20 20 18 17 15 14 14 14 13 13 13 12 12 12 12 13 14 15 13 13 15 15 12 11 13 13 12 11 10 10 11 10 8 7 6 6 6 6 8 9 9 9 8 7 7 8 7 7 7 8 12 18 18 15 12 9 7 7 9 12 13 14 15 15 15 15 15 15 15 14 14 13 13 12 11 12 13 15 14 14 13
20 20 20 19 19 19 18 16 15 15 15 14 13 13 12 12 11 12 13 13 14 14 13 13 14 14 12 11 12 12 12 11 10 10 10 8 7 5 4 4 6 7 8 8 8 8 8 7 8 8 7 8 8 10 14 18 17 14 11 9 8 9 11 13 15 15 15 15 15 15 14 13 14 13 13 12 11 11 10 11 13 14 13 13 13
20 20 21 20 18 18 18 16 16 15 14 14 13 12 11 11 12 13 13 14 14 14 13 13 13 13 12 11 12 12 12 11 10 9 9 7 6 4 2 4 7 7 8 7 7 7 7 7 7 7 7 8 8 11 16 19 17 15 13 10 10 12 14 14 15 14 14 14 14 14 13 12 13 13 12 11 11 11 11 12 13 13 12 13 12
20 21 22 22 20 17 16 15 16 15 14 13 13 12 11 11 12 13 14 14 14 14 13 12 11 10 10 11 11 11 10 10 10 9 8 7 6 4 2 7 9 8 8 7 6 6 6 6 7 7 7 8 8 11 17 18 18 16 13 11 12 13 13 13 13 13 13 12 11 11 12 12 12 12 11 11 11 11 11 12 12 12 11 11 11
21 21 22 23 21 18 15 14 15 15 14 13 13 12 12 12 13 14 14 15 14 14 13 11 10 10 10 11 11 10 9 8 9 9 8 7 6 4 3 8 10 7 7 5 4 4 4 5 6 7 7 7 8 11 16 18 17 14 13 13 13 14 14 14 13 13 12 12 12 12 13 13 11 11 11 11 10 10 11 11 12 11 10 11 11
21 22 24 24 20 18 16 14 14 13 12 12 13 13 12 12 13 14 15 14 14 13 12 11 10 9 9 10 9 8 7 7 7 8 8 8 7 5 5 9 9 7 6 4 3 3 3 4 5 7 7 6 7 10 15 17 16 15 14 15 15 15 15 15 13 13 13 12 13 12 12 12 12 11 11 10 10 10 11 11 11 10 10 11 11
22 23 25 24 19 18 17 16 14 12 11 10 10 12 12 13 13 14 14 14 14 14 12 10 9 8 8 9 8 7 6 6 5 7 8 8 8 6 6 10 9 7 5 3 3 2 2 3 4 6 7 6 7 9 13 16 17 17 15 14 14 13 13 12 12 12 12 11 10 9 10 12 12 11 11 11 10 10 10 10 10 10 10 10 11
20 22 23 23 20 18 17 16 14 12 11 9 8 10 11 12 13 13 14 14 14 13 12 9 8 7 8 8 8 7 6 5 4 5 7 7 8 7 7 9 10 7 5 3 2 2 2 2 3 5 6 7 7 10 15 18 18 15 13 12 11 12 12 10 10 10 10 8 7 9 11 12 11 11 10 10 10 10 10 10 10 10 9 9 10
19 22 22 22 22 21 19 16 15 14 13 11 8 8 10 12 12 12 12 13 13 13 12 9 8 7 7 7 7 6 5 3 3 3 4 6 8 8 7 10 10 8 6 4 2 2 2 2 3 4 7 7 8 12 17 17 15 13 12 12 12 13 11 7 8 8 7 7 6 9 11 11 11 10 9 10 10 10 10 9 10 9 9 9 9
18 20 19 20 22 23 20 18 18 17 16 14 10 7 9 10 9 10 10 11 12 11 11 8 6 5 5 6 6 6 6 4 3 3 2 5 9 8 7 9 10 9 7 5 3 3 3 3 3 4 7 8 9 13 16 14 13 12 11 10 11 11 8 6 11 11 9 7 7 10 12 12 11 10 9 9 10 10 9 9 9 9 9 9 9
15 16 15 17 20 21 19 18 18 17 17 16 13 8 9 10 7 8 9 9 10 9 9 8 6 5 5 6 6 7 6 5 5 3 2 4 7 8 8 9 10 9 7 5 3 3 4 4 4 4 6 8 9 10 12 13 12 10 9 7 8 9 7 8 11 10 8 6 7 11 12 12 11 10 10 9 9 9 9 9 9 9 9 8 8
14 16 15 14 16 17 15 14 15 15 16 17 14 10 10 11 9 9 9 9 10 10 10 10 11 10 9 8 8 8 4 5 6 4 4 4 5 6 7 8 10 9 7 6 5 5 5 5 6 5 6 7 8 6 6 8 5 5 6 6 7 7 7 9 9 8 7 6 7 10 11 11 11 10 10 9 8 8 8 9 9 9 8 8 8
13 14 13 14 15 15 14 13 14 13 14 16 13 11 12 13 12 11 10 10 10 10 9 10 12 12 10 9 9 8 5 5 7 6 8 6 4 4 5 6 10 11 9 7 6 6 7 7 8 9 8 6 7 9 8 4 2 3 3 3 6 5 5 8 10 9 7 6 6 8 9 9 10 10 9 9 8 8 8 8 9 9 8 9 9
14 13 12 14 14 14 15 14 14 13 11 14 13 10 12 13 13 12 11 11 10 9 10 10 12 11 8 9 10 9 7 7 9 10 11 10 7 6 5 4 8 11 12 9 7 8 8 8 10 11 10 6 6 9 10 6 4 2 2 5 6 6 7 8 7 6 4 4 5 8 10 9 8 9 9 9 8 8 8 8 8 9 9 9 9
14 13 11 12 13 14 14 13 13 13 10 11 11 10 12 13 12 11 9 9 9 9 11 9 9 11 10 11 12 12 12 11 12 13 12 12 11 10 9 9 9 10 11 10 9 11 11 10 12 13 11 9 9 9 9 7 6 6 6 7 6 6 8 8 7 6 3 1 4 7 9 10 9 9 9 8 8 8 8 8 8 8 9 9 9
14 13 11 10 12 14 13 13 13 12 10 9 9 9 11 11 10 10 7 7 9 10 11 9 7 11 14 15 14 15 16 15 14 14 13 14 13 13 12 13 13 11 11 11 11 14 13 13 15 15 13 13 12 10 9 9 8 7 7 8 7 6 7 9 10 8 4 3 4 5 5 8 9 8 8 8 8 8 8 8 8 8 8 9 9
14 11 11 11 13 14 13 13 13 12 10 9 8 8 9 8 8 10 9 7 9 10 10 10 8 10 14 17 17 16 17 15 14 14 15 15 14 14 13 13 14 14 13 12 11 14 14 15 16 16 16 15 13 11 10 10 9 8 8 7 7 6 5 6 8 8 7 5 4 4 4 7 10 9 8 8 8 8 8 8 9 8 8 8 8
16 12 10 14 14 14 12 12 13 12 11 9 7 7 7 7 7 9 10 8 9 11 11 10 9 9 12 16 15 14 15 15 13 14 14 13 13 12 11 13 13 13 13 13 11 13 14 16 18 19 17 15 14 12 10 10 10 9 8 8 7 5 5 5 6 8 8 6 5 3 3 7 11 12 9 9 9 9 9 8 8 8 8 8 8
18 15 10 12 13 13 14 12 12 11 10 9 6 7 7 7 7 7 8 8 9 11 11 10 9 9 10 12 13 13 13 14 13 13 13 12 12 11 12 13 12 13 14 13 13 13 15 18 20 20 18 16 15 14 12 11 11 11 10 10 7 5 6 6 6 7 7 7 5 2 4 9 11 12 11 9 10 10 9 9 8 8 7 8 8
16 18 14 12 11 11 12 12 13 12 11 9 7 8 7 6 7 6 6 7 8 10 10 9 9 9 11 11 11 11 12 13 12 13 14 13 12 12 13 12 12 13 15 15 14 15 16 21 22 20 18 16 13 13 13 11 12 12 10 9 9 8 7 7 7 7 8 7 5 2 5 10 11 11 11 10 11 10 9 8 8 8 8 8 8
13 15 17 16 15 14 12 10 12 12 11 9 8 8 6 6 6 6 6 8 8 8 8 8 10 10 11 11 9 10 11 12 11 12 14 13 12 13 14 13 12 13 15 16 16 17 17 20 22 19 18 16 10 9 12 11 12 12 10 10 10 9 8 8 7 8 9 8 6 4 6 10 10 11 11 10 11 11 10 9 8 9 9 8 8
12 12 14 14 14 15 14 13 13 12 11 9 9 8 7 7 7 6 7 7 7 6 6 7 10 12 11 9 9 10 11 11 12 12 13 13 13 14 14 15 15 14 15 16 17 18 19 19 18 16 15 14 11 8 10 11 12 12 11 11 11 11 9 8 8 8 9 8 9 8 8 10 10 11 11 10 10 10 11 11 10 9 8 8 9
12 11 11 11 11 11 12 13 13 14 14 11 10 9 9 10 9 8 7 5 5 5 6 8 10 12 11 10 10 11 11 11 13 13 14 14 13 13 16 17 15 13 14 15 16 16 18 20 16 14 13 12 13 11 12 12 13 13 12 10 10 11 10 9 9 9 9 9 10 10 11 11 9 10 12 11 10 9 8 10 11 11 9 9 9
11 11 9 9 8 8 8 9 11 12 13 11 10 9 9 10 9 9 7 5 5 6 5 6 8 9 11 11 11 11 12 12 12 14 15 15 14 14 16 16 14 14 14 15 15 15 18 18 16 16 16 15 14 13 13 14 14 14 12 9 9 9 10 10 10 10 9 9 9 11 14 13 10 11 12 11 10 9 8 8 10 12 10 9 9
10 9 8 8 7 7 6 6 7 8 9 9 8 6 5 6 5 5 5 5 6 7 7 8 10 10 11 13 12 11 12 12 13 14 14 15 16 15 14 15 15 16 15 15 15 16 19 19 17 18 19 18 18 16 15 15 15 14 12 10 10 10 10 10 10 10 9 9 9 10 13 13 13 14 13 11 10 9 9 9 10 12 12 10 10
9 8 7 7 6 6 5 4 4 4 6 6 5 4 2 4 4 4 4 6 8 9 10 12 15 16 12 10 12 12 12 13 14 14 14 15 17 16 14 13 16 18 18 18 17 18 20 20 19 19 19 18 18 19 18 16 16 15 14 12 11 12 10 10 11 10 8 8 9 9 11 12 14 17 15 11 10 10 10 11 10 11 12 12 12
8 7 7 6 5 5 4 3 2 2 3 3 3 2 1 3 5 5 5 7 7 6 7 8 12 15 12 9 11 12 12 13 14 15 16 17 17 17 15 13 15 18 19 19 19 20 20 20 19 19 20 19 19 20 19 17 17 15 16 16 12 13 12 11 11 10 8 8 8 8 9 11 13 15 14 11 10 10 10 12 12 11 12 13 13
7 7 7 6 6 6 4 4 3 2 1 1 2 1 3 4 5 5 5 6 6 5 4 5 6 7 9 9 11 13 13 14 15 16 17 18 18 19 18 17 16 18 19 19 20 21 22 21 20 20 20 20 20 20 18 18 18 14 14 15 13 13 14 14 11 10 10 9 8 7 8 11 12 10 11 11 9 10 10 11 11 11 11 11 13
10 8 7 7 7 7 7 6 6 4 3 2 2 2 4 5 5 5 4 5 5 6 6 6 6 6 7 8 9 11 12 13 14 15 16 18 18 18 20 20 19 19 20 21 21 21 22 22 22 20 20 21 21 20 19 18 16 12 10 11 13 14 14 14 12 11 11 10 9 8 7 11 12 9 10 9 8 10 11 11 12 12 11 11 12
16 14 13 12 9 8 8 7 6 6 5 5 3 3 5 6 7 6 4 4 5 7 8 8 8 7 7 8 10 10 11 12 13 14 16 18 18 18 19 19 20 20 21 22 22 21 21 21 21 20 20 22 22 21 21 18 14 13 8 5 8 11 13 15 15 13 12 12 13 11 9 10 12 11 10 9 10 11 11 11 12 13 14 13 12
18 18 17 15 13 12 11 8 7 7 6 6 4 3 4 6 7 6 6 4 6 9 9 10 10 8 9 11 11 10 10 11 12 14 16 17 18 19 20 19 19 20 21 22 22 22 22 22 21 21 20 20 20 20 22 20 17 15 8 3 3 6 8 12 15 16 15 14 15 14 12 11 11 12 11 11 12 12 11 12 13 15 16 16 13
17 17 16 15 15 15 13 11 9 9 8 6 5 5 5 6 7 7 7 6 8 11 11 10 11 11 12 12 11 10 10 11 11 13 15 16 18 19 20 20 20 20 21 22 22 23 23 23 23 23 22 19 19 20 23 24 21 16 7 2 3 4 4 7 11 16 18 16 15 16 15 12 11 13 12 13 13 11 11 14 15 16 16 16 15
16 15 15 15 14 13 13 13 11 10 10 9 7 7 7 7 7 8 8 8 9 9 9 10 11 13 12 10 11 11 11 12 13 13 14 16 18 19 20 20 21 20 20 21 23 24 24 23 24 25 25 23 20 19 21 24 24 21 13 5 3 3 2 6 8 10 15 17 16 16 17 14 14 15 14 13 13 11 12 14 14 15 15 16 16
15 14 14 14 14 13 14 14 13 12 12 12 12 10 9 8 8 8 10 12 11 8 7 9 12 14 14 12 11 11 11 13 14 13 14 16 18 19 20 20 21 21 21 21 21 23 24 24 25 25 26 26 23 19 20 23 24 24 20 12 7 3 3 6 6 3 8 13 13 14 17 16 15 15 14 13 12 13 14 13 11 14 15 14 16
13 13 14 14 14 14 14 14 15 14 15 15 14 13 12 11 8 7 10 12 12 11 11 12 15 16 17 16 15 14 14 14 14 14 15 18 19 19 19 19 20 20 21 22 21 21 22 23 25 26 26 27 25 21 19 21 21 22 24 21 14 8 5 4 4 3 2 6 9 12 15 16 15 15 14 12 12 13 15 13 10 14 14 12 14
12 12 13 13 13 13 14 14 14 14 14 15 14 14 14 14 11 8 9 10 11 14 15 16 17 17 17 18 17 15 14 14 15 16 17 18 19 20 19 19 20 21 21 22 21 21 21 22 22 24 26 25 26 25 21 20 20 20 23 24 19 13 9 5 6 7 4 2 6 9 12 15 16 16 14 12 14 14 15 14 11 13 13 12 13
12 12 12 12 12 13 14 14 14 13 14 15 14 14 13 13 13 11 9 10 11 14 18 18 17 16 17 19 17 16 15 15 16 17 18 18 18 18 19 20 20 21 22 21 21 21 21 21 20 22 25 25 26 27 24 22 22 21 21 22 20 16 12 8 8 9 5 3 4 5 8 11 13 17 16 13 15 15 15 14 13 13 14 14 14
11 11 11 11 11 12 13 13 13 14 14 15 15 15 14 13 14 14 14 13 12 14 17 20 19 17 16 18 18 17 16 17 18 17 17 17 17 17 18 19 20 21 22 20 20 20 21 22 21 21 24 25 26 26 25 23 23 23 22 21 19 17 13 8 8 9 6 4 4 4 8 10 9 14 18 17 16 15 15 16 14 14 16 16 15
10 10 10 10 10 11 12 13 13 14 14 15 15 15 15 15 15 16 15 15 15 15 17 19 20 19 17 17 18 17 17 19 19 17 17 18 18 18 18 19 20 21 22 20 19 19 20 21 22 22 23 24 26 26 26 24 22 23 24 22 21 21 18 14 13 14 9 5 5 4 7 12 10 11 16 18 17 15 15 17 15 15 17 16 16
Wind_Direction
117 125 132 142 144 146 146 146 154 156 158 157 155 152 147 145 144 144 137 123 112 111 104 95 97 103 106 105 101 100 99 96 92 90 94 96 93 94 97 99 103 104 103 103 102 100 99 98 97 96 95 94 94 95 93 95 95 96 97 98 100 101 100 99 100 100 100 98 94 92 87 84 84 86 87 83 85 86 77 74 73 72 74 73 70
117 124 127 136 145 145 145 149 155 155 157 156 154 151 148 147 148 147 138 123 117 116 104 99 107 108 105 105 102 99 100 96 92 90 95 96 93 97 99 101 103 103 103 104 104 102 101 99 98 97 96 96 95 95 93 93 94 95 97 98 98 98 97 99 100 101 102 98 93 93 90 86 86 84 84 83 85 83 77 75 74 72 73 73 72
115 120 124 133 141 143 145 152 156 155 156 155 153 151 150 150 151 148 136 126 122 118 106 105 113 111 110 109 104 103 102 94 89 90 94 94 94 98 100 101 102 102 103 104 103 102 102 100 98 97 96 95 94 94 94 94 94 97 99 99 98 96 97 99 101 102 102 97 91 89 85 80 78 78 77 77 77 77 77 78 79 79 75 72 73
111 119 125 131 136 142 147 152 157 155 155 153 153 151 152 153 152 147 135 129 125 119 109 112 115 110 112 111 110 109 101 92 91 93 95 95 96 100 101 102 103 103 104 105 104 103 102 100 99 97 96 94 93 92 94 97 98 102 104 101 97 95 97 101 104 104 105 98 88 84 82 78 76 77 78 78 79 79 80 79 79 77 72 71 74
114 123 126 129 135 144 149 151 153 153 155 153 153 152 152 154 151 144 137 132 127 120 114 119 114 107 111 114 114 108 98 94 92 95 98 97 100 101 102 103 103 104 104 104 102 103 102 100 100 98 97 96 96 96 97 101 103 108 108 102 94 92 94 99 107 109 114 102 79 79 82 80 80 79 80 82 82 82 80 76 73 72 69 71 74
119 125 128 132 138 146 149 150 152 153 154 153 153 153 153 153 150 144 140 134 129 123 121 123 114 106 110 114 115 107 102 97 93 98 100 101 103 103 105 106 105 104 102 102 101 100 100 99 99 97 97 99 101 100 101 102 106 111 111 106 97 95 94 91 98 102 112 103 74 81 84 81 83 82 81 83 85 84 79 76 75 75 73 73 73
124 129 133 135 141 152 151 151 152 152 152 153 153 152 152 151 148 146 142 136 133 130 128 126 116 113 110 112 115 108 106 99 96 99 102 105 106 106 106 106 104 102 99 98 99 97 97 98 99 99 99 98 98 97 95 96 104 113 116 112 105 103 98 87 84 78 73 75 88 92 88 88 88 84 81 82 88 85 80 78 78 79 77 74 73
131 134 136 136 145 156 153 150 150 150 151 152 151 149 150 149 149 146 143 139 139 136 134 130 121 123 118 115 117 111 110 105 99 96 102 107 106 107 105 104 100 99 98 97 97 95 95 96 100 100 99 98 96 92 90 92 99 113 118 114 111 107 98 87 70 54 53 73 101 103 94 93 90 86 83 83 86 83 81 80 80 85 83 76 75
136 135 140 144 148 155 153 150 150 150 151 151 149 147 147 149 149 145 142 140 142 140 139 136 128 131 125 120 123 120 118 113 105 98 103 108 107 107 104 103 100 100 103 102 100 98 95 95 100 99 99 101 97 92 88 85 90 105 114 112 111 106 92 80 60 55 72 92 103 102 96 95 92 89 85 84 88 89 86 82 81 86 86 78 78
134 134 143 146 148 156 154 152 153 152 152 151 150 146 145 149 146 143 143 141 143 142 141 140 136 134 129 127 130 128 125 119 117 111 110 111 107 107 108 108 104 104 108 110 110 105 99 97 104 105 107 104 96 92 82 80 99 111 114 113 112 106 89 73 65 69 84 99 102 99 97 95 94 93 88 88 94 97 89 82 78 78 84 81 78
135 132 137 141 149 157 156 155 155 154 152 149 151 146 144 147 144 144 147 143 143 142 141 142 141 137 133 136 137 134 131 126 125 118 115 114 111 111 113 113 106 105 111 114 115 111 108 108 112 112 113 105 97 88 80 97 113 117 117 118 115 105 85 66 68 84 92 96 95 92 94 93 93 93 92 92 91 92 88 82 71 68 82 85 80
135 133 140 147 149 154 155 154 153 152 151 148 149 146 145 146 146 149 149 147 145 141 137 141 145 142 137 141 143 140 138 134 130 126 125 124 122 118 113 104 93 93 102 107 110 111 112 117 114 110 112 104 97 85 92 114 121 120 119 118 114 99 77 65 69 92 97 94 93 92 94 95 95 94 93 91 87 87 86 81 72 71 81 84 82
129 138 149 150 146 151 153 151 150 148 147 148 149 146 148 147 148 151 148 146 143 139 138 140 143 142 139 145 148 145 145 142 139 138 140 141 134 126 115 95 89 97 100 104 109 109 111 111 105 103 105 100 94 89 106 123 124 122 121 115 107 82 67 75 84 96 98 97 97 94 95 96 94 94 92 90 86 81 77 76 78 79 81 82 82
129 140 147 143 140 148 150 148 146 145 146 147 148 148 148 147 148 149 145 144 141 141 146 143 141 144 147 152 154 152 152 150 148 148 152 156 150 141 131 107 105 110 109 112 114 113 112 105 97 95 93 95 94 97 118 129 126 124 121 112 94 68 62 79 94 99 97 96 98 95 97 96 91 90 90 89 85 78 72 73 80 81 80 81 80
130 135 138 137 134 140 143 145 145 145 149 149 150 149 148 149 148 147 143 142 142 143 146 146 146 152 155 155 158 159 158 157 159 158 160 164 163 167 156 127 125 117 113 117 122 121 113 102 93 90 85 90 93 106 127 134 131 126 120 105 82 72 74 83 95 100 99 100 101 100 100 97 93 93 92 89 84 77 73 76 82 82 79 81 80
129 129 131 130 128 133 135 141 147 149 152 154 155 153 151 151 149 146 141 138 138 138 139 139 139 146 152 157 163 164 161 163 169 171 172 175 174 184 169 135 132 117 113 115 127 130 114 103 93 87 83 86 93 113 133 137 134 128 116 99 79 76 81 87 100 102 99 103 103 103 104 103 100 97 94 91 87 84 82 82 84 84 82 82 82
129 126 125 123 124 129 132 139 148 152 156 159 157 155 155 153 153 149 145 143 141 139 139 140 139 143 149 159 168 168 169 172 177 184 187 188 186 190 164 141 136 119 114 111 123 133 117 105 89 83 79 84 95 116 138 140 134 127 110 95 83 80 79 83 96 102 101 107 106 108 111 108 103 98 96 93 93 92 89 87 86 86 84 81 79
129 126 121 118 123 131 136 140 145 153 157 159 157 158 160 156 157 153 151 150 147 147 146 147 149 149 151 158 168 171 177 183 189 199 200 195 188 186 166 151 143 129 122 111 117 132 130 109 87 82 76 81 97 117 140 142 132 121 106 98 93 90 89 89 95 100 106 116 121 123 120 112 106 103 100 97 95 93 91 90 89 85 81 81 80
128 124 118 118 129 137 138 140 146 158 153 154 161 163 166 161 160 157 155 155 152 153 152 153 152 155 157 157 163 168 176 183 198 205 207 204 189 183 176 161 152 142 137 124 124 143 145 124 95 85 79 83 96 114 134 139 130 121 112 107 102 97 94 96 105 111 116 124 132 133 125 115 109 106 104 101 99 98 95 93 92 89 86 87 84
120 114 116 126 137 139 136 140 151 158 149 154 167 166 170 169 166 161 157 159 159 157 158 156 153 160 166 169 170 166 173 178 183 196 203 203 187 184 185 171 162 156 152 145 146 176 173 149 109 89 85 90 97 112 126 131 128 122 115 104 94 87 79 82 102 120 129 130 131 130 125 118 112 110 110 108 106 104 102 98 98 96 92 91 89
106 107 120 137 142 139 139 148 157 156 154 161 166 165 174 175 172 167 162 162 163 163 166 163 156 163 173 186 186 168 173 167 147 177 192 185 186 193 194 180 171 166 163 167 180 208 210 182 136 100 94 97 104 119 126 126 120 114 105 95 88 82 75 86 107 115 127 135 136 131 125 120 118 118 116 114 112 109 109 108 106 102 95 92 95
95 103 123 145 144 141 149 159 162 162 161 159 159 168 173 171 170 168 165 166 166 167 170 164 158 176 194 203 205 188 178 160 157 187 200 181 190 200 201 190 179 174 170 176 195 221 232 202 171 118 104 106 109 124 130 122 110 103 94 91 88 79 71 105 120 122 128 137 140 133 129 125 123 123 120 117 115 115 114 110 107 104 98 95 99
106 116 133 150 142 143 155 162 166 167 164 160 158 162 164 158 156 161 161 163 162 163 168 164 170 188 207 215 228 228 202 166 177 202 232 208 200 204 210 204 191 185 177 180 205 230 240 217 197 147 123 120 109 122 131 122 110 94 86 87 87 90 98 114 122 129 137 144 138 133 132 128 125 124 124 122 121 119 114 111 110 107 103 102 105
131 141 145 143 134 140 151 163 174 171 165 167 163 153 159 159 157 161 158 155 156 162 169 172 182 186 191 207 227 250 249 169 181 197 202 215 222 218 221 214 201 197 189 188 208 230 243 230 209 182 158 147 137 151 150 134 120 64 65 84 99 121 128 123 127 131 137 143 138 137 137 134 132 131 130 128 125 121 116 116 115 111 108 106 104
133 138 136 132 129 137 149 166 179 173 162 167 167 158 165 172 168 167 160 154 157 168 181 185 193 190 180 196 217 244 254 182 190 198 190 196 216 222 230 219 200 196 195 197 213 227 236 235 219 198 184 172 172 195 202 199 255 347 34 107 131 153 138 125 138 145 152 158 144 137 134 133 133 132 133 131 127 125 124 121 119 118 113 108 105
124 123 125 129 131 141 157 172 176 173 166 164 169 169 174 182 178 175 169 161 158 170 193 200 205 203 181 188 208 227 229 198 199 201 193 192 191 194 199 203 198 195 193 194 216 235 234 236 234 215 199 206 228 210 201 217 248 239 177 161 158 161 141 131 153 173 192 202 162 144 135 135 135 133 137 135 132 132 131 129 127 126 118 112 112
118 124 130 130 133 140 159 176 173 166 166 161 168 181 180 183 185 182 173 161 157 170 198 208 203 204 200 202 208 215 215 203 201 200 197 197 196 196 189 186 195 198 199 193 208 238 239 234 239 234 222 226 235 213 194 210 220 202 185 181 181 175 165 165 194 210 210 186 155 154 148 146 146 145 145 140 139 139 135 136 134 131 126 121 118
112 123 131 131 136 139 155 173 171 163 163 159 166 182 179 181 189 191 180 158 164 182 206 214 192 194 206 213 214 215 217 210 202 201 199 201 201 201 195 191 191 192 206 205 214 243 243 234 237 237 236 232 224 207 198 208 212 206 196 193 192 187 187 176 180 193 179 151 143 149 157 152 153 156 151 147 149 147 141 140 137 133 130 127 125
111 120 126 131 140 147 156 165 164 161 162 159 160 170 173 177 185 196 198 172 172 183 197 208 200 197 205 210 215 219 222 217 207 203 205 206 204 203 203 202 197 192 203 205 221 251 247 236 237 236 237 232 218 203 200 206 210 216 203 197 200 189 183 157 157 171 168 172 164 146 161 161 160 160 155 156 157 150 147 143 140 137 134 136 138
118 123 126 129 138 147 147 149 155 155 152 147 152 167 171 170 172 196 208 187 176 175 179 201 213 214 204 201 213 221 224 225 218 210 210 211 210 209 207 205 203 201 206 201 212 250 255 245 239 238 241 235 223 204 197 206 211 218 208 201 203 188 180 159 152 170 179 191 185 167 178 175 171 166 160 162 159 152 151 147 143 141 144 148 146
123 128 125 117 125 141 143 147 154 149 142 138 152 171 167 168 175 200 211 195 185 179 176 189 203 220 219 211 219 222 224 228 225 216 215 218 216 213 208 206 204 203 213 210 211 236 256 259 247 241 242 239 230 208 199 208 211 218 212 201 196 190 196 189 176 175 188 197 191 208 193 180 175 168 166 170 165 158 156 152 149 150 156 157 151
116 126 131 125 128 145 151 153 149 140 138 149 166 167 169 187 196 209 214 203 201 192 182 173 177 209 232 233 229 224 226 227 223 215 216 221 219 214 211 214 210 205 214 216 214 223 245 265 257 242 241 243 232 204 201 208 214 223 214 201 195 196 203 201 201 185 180 191 194 198 175 176 172 161 166 173 168 159 156 158 159 163 168 162 150
105 115 127 133 138 146 148 148 147 140 136 154 169 167 185 209 213 219 214 212 210 193 183 168 168 198 227 235 231 234 238 234 230 222 215 217 216 216 216 223 225 218 220 218 215 217 230 259 263 247 239 249 246 202 203 210 220 231 217 203 196 196 206 204 209 197 182 187 198 191 164 174 176 159 157 164 163 157 158 168 172 177 176 159 149
103 106 114 123 131 140 144 147 150 149 141 151 163 164 186 200 205 208 201 210 212 194 187 169 169 191 214 226 230 239 246 243 244 238 226 223 222 222 221 225 231 229 227 223 220 219 218 233 253 258 246 249 254 222 212 216 225 234 225 212 197 195 207 204 205 206 196 186 190 193 171 174 182 171 162 161 162 158 163 172 178 188 184 162 160
99 101 104 109 114 124 135 141 146 151 148 154 166 168 181 192 201 204 200 211 224 225 205 171 172 190 198 209 225 233 238 243 244 241 233 229 228 229 226 226 229 228 226 226 225 225 220 217 228 246 244 245 251 236 220 221 228 232 232 221 201 199 204 206 208 209 209 194 185 182 173 178 183 178 173 171 174 170 172 179 182 193 195 176 170
94 99 102 103 103 101 108 122 135 145 143 151 171 175 181 191 201 203 197 205 227 248 230 180 184 200 195 200 221 229 232 241 242 237 233 230 228 229 228 227 229 227 225 225 224 226 226 222 224 228 222 222 232 237 226 224 230 233 236 226 208 204 205 211 213 212 214 200 188 179 177 186 182 180 186 182 185 187 186 192 193 201 202 188 177
83 88 95 97 96 89 85 100 113 128 131 139 161 171 187 200 205 203 200 208 215 217 203 184 189 206 207 204 214 227 234 241 239 236 236 235 232 231 228 227 228 228 229 228 225 226 225 223 229 230 223 215 216 226 226 223 231 233 233 230 223 216 213 221 218 214 217 199 194 186 182 188 180 183 192 184 188 199 197 200 205 209 208 198 185
72 71 75 80 86 87 80 84 92 107 119 127 145 159 209 239 240 242 236 233 228 209 192 181 179 190 204 207 206 216 230 237 235 233 238 238 235 235 232 230 232 231 231 231 226 224 224 223 226 229 227 220 215 219 219 219 226 227 222 223 229 225 225 238 224 212 214 199 199 197 185 187 185 189 197 192 196 205 205 205 206 208 209 205 195
72 70 67 64 65 72 68 59 57 79 109 118 118 117 231 258 258 259 252 247 246 228 205 192 182 185 194 198 198 208 226 236 233 228 233 239 238 237 233 230 236 234 230 230 229 228 228 227 225 226 223 222 224 221 217 218 219 221 220 217 222 224 229 245 231 212 213 207 209 209 190 183 183 191 201 202 206 210 209 210 207 203 206 208 203
72 77 76 66 56 51 44 38 24 3 38 90 79 97 224 241 258 258 253 254 256 259 252 231 214 210 208 202 198 205 225 243 245 236 235 240 240 240 237 231 229 231 229 230 233 233 232 229 226 227 225 224 227 222 219 221 217 219 222 213 211 214 223 240 236 215 211 214 222 219 197 184 178 187 203 205 213 218 211 209 209 208 208 208 204
60 67 68 61 57 45 34 32 23 15 9 9 16 274 250 261 272 269 267 270 270 272 268 248 238 244 238 228 218 210 219 235 245 247 244 243 242 241 239 235 229 228 232 233 236 238 237 234 230 229 227 223 223 221 220 220 215 218 220 215 219 217 218 227 228 222 218 220 226 225 209 194 186 192 207 209 218 219 210 208 207 208 211 209 204
50 50 51 50 51 42 32 25 18 21 24 30 19 294 281 282 273 273 288 284 272 265 263 262 253 249 252 253 245 233 228 226 230 239 244 245 246 242 236 234 233 233 235 236 239 240 236 235 232 228 225 222 223 222 219 213 209 212 203 193 223 224 225 223 218 219 218 217 221 224 225 206 194 200 209 219 227 218 212 217 212 205 207 211 207
45 44 46 46 42 35 27 14 7 11 16 34 26 319 304 297 287 292 299 278 267 274 278 281 277 271 266 261 256 249 245 239 233 235 240 243 245 244 241 237 237 239 240 239 238 236 235 234 232 229 225 222 225 226 221 214 208 206 190 151 198 212 234 231 222 220 216 217 223 227 233 222 204 206 208 214 226 222 221 229 223 211 207 209 210
39 36 37 35 30 27 21 9 360 357 355 5 353 321 323 320 305 298 295 281 276 286 292 289 283 278 272 271 274 269 262 258 251 245 244 246 247 249 250 247 245 243 240 238 234 233 235 235 232 229 224 220 221 224 225 219 211 201 182 158 193 188 219 214 215 225 222 222 229 230 231 223 207 210 209 208 219 225 231 235 222 209 203 199 201
33 28 27 25 22 18 14 6 359 354 353 359 355 333 321 315 308 304 303 295 287 289 293 288 284 285 283 283 288 286 274 263 258 254 252 254 253 254 255 253 252 251 245 239 236 236 237 234 231 227 223 219 216 217 221 220 215 207 191 173 186 200 221 181 182 216 218 217 227 228 226 221 209 211 213 211 214 216 227 235 216 199 197 195 195
29 25 22 21 19 15 10 6 1 359 0 2 2 354 338 321 312 311 313 310 306 303 301 298 295 297 297 292 288 286 277 267 262 259 257 256 256 256 257 257 256 256 252 246 242 241 239 236 232 228 224 222 218 212 214 216 218 215 204 199 208 195 165 165 155 169 207 212 223 224 221 223 217 213 214 211 208 213 220 225 209 193 193 194 194
26 23 20 19 17 14 11 5 0 359 359 357 354 355 352 345 332 306 300 305 306 301 297 295 294 297 299 296 294 290 281 275 271 265 261 259 258 260 262 263 259 257 256 251 246 243 241 239 235 231 227 224 220 214 213 211 215 220 213 211 223 212 176 179 175 138 167 214 220 220 219 222 219 215 216 210 204 218 224 217 202 192 188 183 181
28 24 22 21 16 14 12 7 3 359 356 354 350 349 350 349 345 323 296 294 295 294 293 293 293 292 292 294 295 293 286 283 280 275 269 263 261 262 264 265 261 257 256 252 250 248 244 240 237 233 230 226 222 219 217 208 206 216 216 218 229 220 201 215 202 166 132 178 202 215 221 219 218 215 215 210 206 217 220 210 197 189 184 179 173
34 28 23 22 18 15 11 9 7 0 356 355 353 351 349 346 348 348 329 311 300 298 299 301 300 296 294 294 294 293 290 287 283 280 278 273 267 264 262 263 261 259 259 256 253 252 248 242 236 232 229 227 226 223 220 213 209 211 211 214 222 219 210 219 204 175 156 160 175 199 208 208 216 217 216 212 208 213 214 204 196 189 184 182 180
36 31 26 21 18 16 9 9 8 2 357 355 354 354 354 352 353 354 346 337 329 318 314 312 308 306 304 302 302 300 295 288 282 283 283 280 272 264 262 263 264 265 267 266 262 257 252 248 244 237 231 229 229 227 223 219 215 214 210 206 207 208 207 209 196 181 174 174 185 195 189 188 202 214 216 215 209 213 212 198 191 192 189 185 187
34 30 27 19 16 15 9 6 6 1 357 356 356 356 356 357 354 351 349 347 344 337 330 323 318 318 314 309 307 302 298 294 290 287 284 280 275 270 269 268 267 268 270 274 273 265 257 252 246 239 235 233 231 227 225 222 217 215 214 211 208 204 202 204 198 189 183 171 180 197 190 190 195 204 211 213 211 212 205 195 195 200 193 188 192